Tracking 19246 objects as of 19-Aug-2018
HD Live streaming from Space Station
objects crossing your sky now

FENGYUN 1C DEB

Track FENGYUN 1C DEB now!
10-day predictions


NORAD ID: 31449
Int'l Code: 1999-025BUM
Perigee: 688.4 km
Apogee: 904.4 km
Inclination: 98.9 °
Period: 100.6 minutes
Semi major axis: 7167 km
RCS: 0.0072 m2 (small)
Launch date: May 10, 1999
Source: People's Republic of China (PRC)
Launch site: Taiyaun Space Center, China (TSC)

Note: This is SATELLITE DEBRIS
aabbcc
Your satellite tracking list
Your tracking list is empty




NASA's NSSDC Master Catalog

Two Line Element Set (TLE):
1 31449U 99025BUM 18230.82247899  .00000062  00000-0  37422-4 0  9999
2 31449  98.8554 236.9669 0150665 194.5179 165.1652 14.30743411594161
Source of the keplerian elements: AFSPC